Location: Kershaw
(34.5481°N, 80.5823°W)
Time: 07:58:27
(UTC+00:00)

Tiros 1 despin weight - Pass Details

Date: 03 October 2022
Orbit: 590 x 637 km, 48.2° (Epoch: 28 November)

Event Time Altitude Azimuth Distance (km) Brightness Sun altitude
Rises 04:13:44 0° 301° (WNW) 2,913 - -56.6°
Reaches altitude 10° 04:16:07 10° 295° (WNW) 2,009 - -56.8°
Maximum altitude 04:20:30 43° 224° (SW) 890 - -57.2°
Drops below altitude 10° 04:24:54 10° 153° (SSE) 2,013 - -57.5°
Sets 04:27:18 0° 146° (SSE) 2,920 - -57.7°
